Simultaneous Nadir Overpasses (SNOs) Predictions

Prediction of SNOs between METOP-B and NOAA-19 Satellite Orbit:

Table of predicted SNOs for the next 14.0 days since TLE Epoch: 7/14/2017
Index Date (METOP-B) Time (METOP-B) Lat,Lon (METOP-B) SZA (METOP-B ) Date (NOAA-19) Time (NOAA-19) Lat,Lon (NOAA-19) SZA (NOAA-19 ) Distance(km) Time Diff (sec)
1 07/16/2017 21:38:04 77.35,-139.29 56.10 07/16/2017 21:36:59 77.35,-139.19 56.09 2.41 65
2 07/16/2017 22:28:45 -77.36, 28.08 123.89 07/16/2017 22:27:54 -77.35, 28.08 123.90 1.37 51
3 07/16/2017 23:19:26 77.33,-164.71 56.09 07/16/2017 23:19:00 77.33,-164.59 56.09 3.24 26
4 07/17/2017 00:10:07 -77.34, 2.65 123.90 07/17/2017 00:09:55 -77.33, 2.68 123.91 1.81 12
5 07/17/2017 01:00:48 77.31, 169.86 56.08 07/17/2017 01:01:02 77.34, 169.82 56.11 3.51 14
6 07/17/2017 01:51:29 -77.32, -22.77 123.91 07/17/2017 01:51:56 -77.30, -22.72 123.92 2.43 27
7 07/17/2017 02:42:10 77.29, 144.43 56.07 07/17/2017 02:43:03 77.32, 144.43 56.10 3.11 53
8 07/17/2017 03:32:51 -77.30, -48.20 123.92 07/17/2017 03:33:57 -77.28, -48.11 123.93 3.11 66
9 07/27/2017 16:05:53 77.38, -56.15 58.28 07/27/2017 16:04:50 77.38, -56.02 58.28 3.25 63
10 07/27/2017 16:56:34 -77.41, 111.29 121.69 07/27/2017 16:55:45 -77.38, 111.27 121.71 2.80 49
11 07/27/2017 17:47:15 77.36, -81.58 58.28 07/27/2017 17:46:51 77.36, -81.41 58.28 3.98 24
12 07/27/2017 18:37:56 -77.39, 85.86 121.69 07/27/2017 18:37:46 -77.36, 85.87 121.72 3.00 10
13 07/27/2017 19:28:37 77.34,-107.01 58.27 07/27/2017 19:28:53 77.38,-107.01 58.31 4.46 16
14 07/27/2017 20:19:18 -77.37, 60.43 121.70 07/27/2017 20:19:47 -77.34, 60.47 121.72 3.36 29
15 07/27/2017 21:09:58 77.36,-132.24 58.31 07/27/2017 21:10:54 77.36,-132.41 58.31 3.99 56
16 07/27/2017 22:00:39 -77.35, 35.01 121.70 07/27/2017 22:01:48 -77.36, 34.88 121.69 3.29 69




NCC Satellite Simultaneous Nadir Overpasses (SNOs) Prediction Service
